sat.trackr.live / text

‹ back to catalog

STARLINK-33831

NORAD 63595 · 2025-076AC

PAYLOAD ACTIVE UNKNOWN

§ Identity

Operator
Country
US
Launch date
2025-04-14
Launch site
AFETR
Launch vehicle
Mass (kg)
RCS (m²)

Purposes: comms

External: N2YO · Heavens-Above · Gunter

§ Orbital elements

Epoch: 2026-05-25T00:12:39.716064Z

Period
94.27 min
Inclination
43.0022°
Eccentricity
0.0002271
Mean motion
15.27586353 rev/d
Perigee alt
481.5 km
Apogee alt
484.6 km
Semi-major
6,861.2 km
B*
4.5626e-4
RAAN
250.5171°
Arg perigee
272.6921°
Mean anomaly
87.3670°
Rev number
6,350

§ Raw data

STARLINK-338311 63595U 25076AC  26145.00879301  .00012317  00000+0  45626-3 0  99932 63595  43.0022 250.5171 0002271 272.6921  87.3670 15.27586353 63503

JSON: /api/v1/satellites/63595 · /tle

For live sub-satellite position, see the globe view (requires WebGL).

§ Visibility from observer

Set your observer location to see the next 7 days of passes ≥ 10°. The values pass through the URL so the page stays shareable.

No JS? Fill the form by hand. The geolocation button needs JavaScript.